World > North America > United States > Texas > Llano   City of Llano, Texas

Llano, TX Hourly Weather Updates

Feedback E-mail the Weather

Quick Clicks

Llano, TX Weather Maps

°F °C°F °C
Llano Weather Map
UTC Time: 6/15/2024, 20:52
Your Time:

Llano, TX Regional Weather

Expires:202406152100;;075636
ASUS44 KSJT 152010
RWRSJT
WEST CENTRAL TEXAS REGIONAL WEATHER ROUNDUP
NATIONAL WEATHER SERVICE SAN ANGELO TX
300 PM CDT SAT JUN 15 2024

NOTE: "FAIR" INDICATES FEW OR NO CLOUDS BELOW 12,000 FEET WITH NO
SIGNIFICANT WEATHER AND/OR OBSTRUCTIONS TO VISIBILITY.


TXZ171-183-184-186-188-203-204-152100-
TEXAS HILL COUNTRY AND EDWARDS PLATEAU
  
CITY           SKY/WX    TMP DP  RH WIND       PRES   REMARKS
LLANO          MOSUNNY   91  64  40 VRB7G17   29.87F TC  33           
HORSESHOE BAY  MOSUNNY   93  63  36 SE10G17   29.89F TC  34           
KERRVILLE      MOSUNNY   92  66  42 S9G20     29.90F TC  33           
FREDERICKSBRG  MOSUNNY   89  64  43 S12       29.91F TC  32           
ROCKSPRINGS    MOSUNNY   91  63  38 S14       29.97F TC  33           
HONDO          SUNNY     94  65  38 S8        29.87F TC  34           
UVALDE         PTSUNNY   96  66  37 SE8G16    29.87F TC  35           
DEL RIO        SUNNY    100  62  28 S10G28    29.81F TC  38           
$$


SKY/WX - Weather  TMP - Temperature  DP - Dew Point  RH - Humidity
WIND - Wind Direction/Speed PRES - Barometric Pressure VSB - Visibility
WCI - Wind Chill Index E13G22 Wind - East Wind 13 mph/Gusts of 22 mph

Trending Headlines

Trending Entertainment Headlines

Llano Radar Loop

Use the map search tool if you want to place a location marker on the radar map...

Llano Quick Facts

National Two Day Weather Forecast


E-mail the Llano Weather Forecast

Voice your opinion or tell us about page issues...